TimeCDT,TemperatureF,Dew PointF,Humidity,Sea Level PressureIn,VisibilityMPH,Wind Direction,Wind SpeedMPH,Gust SpeedMPH,PrecipitationIn,Events,Conditions,WindDirDegrees,DateUTC
12:32 AM,19.2,12.9,76,30.43,10.0,West,4.6,-,N/A,,Clear,270,2012-10-12 05:32:00
12:52 AM,20.8,14.4,76,30.43,10.0,Calm,Calm,-,N/A,,Clear,0,2012-10-12 05:52:00
1:12 AM,20.1,13.8,77,30.43,10.0,Calm,Calm,-,N/A,,Clear,0,2012-10-12 06:12:00
1:32 AM,21.2,14.4,75,30.44,10.0,Calm,Calm,-,N/A,,Clear,0,2012-10-12 06:32:00
1:52 AM,18.3,11.7,75,30.44,10.0,Calm,Calm,-,N/A,,Clear,0,2012-10-12 06:52:00
2:12 AM,18.3,12.6,78,30.44,7.0,Calm,Calm,-,N/A,,Clear,0,2012-10-12 07:12:00
2:32 AM,18.1,12.2,78,30.43,10.0,Calm,Calm,-,N/A,,Clear,0,2012-10-12 07:32:00
2:52 AM,17.8,11.8,78,30.44,10.0,Calm,Calm,-,N/A,,Clear,0,2012-10-12 07:52:00
3:12 AM,15.3,10.4,81,30.44,10.0,Calm,Calm,-,N/A,,Clear,0,2012-10-12 08:12:00
3:52 AM,17.4,12.4,81,30.44,10.0,Calm,Calm,-,N/A,,Clear,0,2012-10-12 08:52:00
4:12 AM,18.9,13.3,79,30.44,10.0,Calm,Calm,-,N/A,,Clear,0,2012-10-12 09:12:00
4:32 AM,19.4,13.3,77,30.43,10.0,Calm,Calm,-,N/A,,Clear,0,2012-10-12 09:32:00
5:13 AM,20.3,14.5,78,30.43,10.0,Calm,Calm,-,N/A,,Clear,0,2012-10-12 10:13:00
5:32 AM,18.9,13.8,81,30.43,10.0,Calm,Calm,-,N/A,,Clear,0,2012-10-12 10:32:00
5:52 AM,18.0,12.4,79,30.42,10.0,Calm,Calm,-,N/A,,Clear,0,2012-10-12 10:52:00
6:12 AM,14.5,9.5,80,30.43,10.0,Calm,Calm,-,N/A,,Clear,0,2012-10-12 11:12:00
6:32 AM,16.5,11.5,81,30.41,10.0,Calm,Calm,-,N/A,,Clear,0,2012-10-12 11:32:00
6:52 AM,16.7,11.7,81,30.42,10.0,Calm,Calm,-,N/A,,Clear,0,2012-10-12 11:52:00
7:12 AM,18.1,13.8,83,30.42,10.0,Calm,Calm,-,N/A,,Clear,0,2012-10-12 12:12:00
7:32 AM,17.4,12.9,83,30.41,7.0,South,3.5,-,N/A,,Clear,170,2012-10-12 12:32:00
7:52 AM,14.9,10.8,84,30.41,7.0,South,4.6,-,N/A,,Clear,180,2012-10-12 12:52:00
8:12 AM,18.3,13.3,81,30.41,7.0,SSE,4.6,-,N/A,,Clear,160,2012-10-12 13:12:00
8:32 AM,21.6,16.7,82,30.41,7.0,ESE,3.5,-,N/A,,Clear,120,2012-10-12 13:32:00
9:12 AM,28.6,20.7,72,30.38,7.0,ESE,6.9,-,N/A,,Clear,110,2012-10-12 14:12:00
9:32 AM,32.2,22.1,66,30.38,7.0,SE,9.2,-,N/A,,Clear,130,2012-10-12 14:32:00
9:52 AM,35.1,21.7,58,30.39,7.0,SE,11.5,-,N/A,,Clear,130,2012-10-12 14:52:00
10:12 AM,37.8,21.4,52,30.38,10.0,SE,12.7,-,N/A,,Clear,130,2012-10-12 15:12:00
10:32 AM,39.2,20.5,47,30.37,10.0,SE,18.4,-,N/A,,Clear,140,2012-10-12 15:32:00
10:52 AM,41.5,21.0,44,30.37,10.0,SE,12.7,20.7,N/A,,Clear,140,2012-10-12 15:52:00
11:12 AM,43.9,21.0,40,30.36,10.0,SE,16.1,19.6,N/A,,Clear,140,2012-10-12 16:12:00
11:32 AM,45.0,21.2,39,30.36,10.0,SE,16.1,21.9,N/A,,Clear,140,2012-10-12 16:32:00
12:12 PM,47.3,19.8,34,30.33,10.0,SE,16.1,20.7,N/A,,Clear,140,2012-10-12 17:12:00
12:31 PM,49.1,18.1,29,30.32,10.0,SSE,18.4,25.3,N/A,,Clear,150,2012-10-12 17:31:00
12:52 PM,49.6,16.9,27,30.31,10.0,SSE,19.6,26.5,N/A,,Clear,150,2012-10-12 17:52:00
1:32 PM,52.0,16.2,24,30.27,10.0,SSE,17.3,23.0,N/A,,Clear,150,2012-10-12 18:32:00
2:52 PM,54.0,14.2,21,30.22,10.0,SSE,19.6,26.5,N/A,,Clear,150,2012-10-12 19:52:00
3:32 PM,54.1,12.9,19,30.19,10.0,SSE,24.2,28.8,N/A,,Clear,150,2012-10-12 20:32:00
3:52 PM,54.7,13.3,19,30.18,10.0,SE,21.9,26.5,N/A,,Clear,140,2012-10-12 20:52:00
4:12 PM,54.5,13.3,20,30.17,10.0,SSE,18.4,24.2,N/A,,Clear,150,2012-10-12 21:12:00
4:32 PM,54.7,14.0,20,30.15,10.0,SSE,18.4,24.2,N/A,,Clear,150,2012-10-12 21:32:00
4:53 PM,54.5,13.6,20,30.14,10.0,SSE,20.7,26.5,N/A,,Clear,150,2012-10-12 21:53:00
5:12 PM,54.1,13.6,20,30.13,10.0,SE,18.4,28.8,N/A,,Clear,140,2012-10-12 22:12:00
5:32 PM,53.2,14.2,21,30.11,10.0,SE,17.3,-,N/A,,Mostly Cloudy,140,2012-10-12 22:32:00
5:52 PM,53.2,14.4,21,30.09,10.0,SE,17.3,25.3,N/A,,Overcast,130,2012-10-12 22:52:00
6:12 PM,53.2,14.7,22,30.08,10.0,SSE,20.7,24.2,N/A,,Overcast,150,2012-10-12 23:12:00
6:32 PM,52.9,15.1,22,30.07,10.0,SE,13.8,21.9,N/A,,Overcast,140,2012-10-12 23:32:00
6:52 PM,52.3,14.9,23,30.08,10.0,SE,13.8,-,N/A,,Overcast,140,2012-10-12 23:52:00
7:12 PM,52.3,14.7,22,30.06,10.0,SE,12.7,-,N/A,,Overcast,130,2012-10-13 00:12:00
7:52 PM,52.3,14.7,22,30.03,10.0,SE,15.0,18.4,N/A,,Overcast,130,2012-10-13 00:52:00
8:12 PM,52.3,14.7,22,30.02,10.0,SE,13.8,20.7,N/A,,Overcast,130,2012-10-13 01:12:00
8:32 PM,52.3,15.3,23,30.02,10.0,SE,16.1,23.0,N/A,,Overcast,130,2012-10-13 01:32:00
8:52 PM,52.3,15.6,23,30.01,10.0,SE,16.1,20.7,N/A,,Overcast,130,2012-10-13 01:52:00
9:12 PM,52.2,15.8,24,30.00,10.0,SE,16.1,-,N/A,,Overcast,140,2012-10-13 02:12:00
9:32 PM,52.3,15.8,24,29.99,10.0,SE,17.3,-,N/A,,Overcast,130,2012-10-13 02:32:00
10:12 PM,52.3,15.8,24,29.97,10.0,SE,18.4,25.3,N/A,,Overcast,140,2012-10-13 03:12:00
10:52 PM,52.3,16.7,24,29.95,10.0,SE,19.6,24.2,N/A,,Overcast,140,2012-10-13 03:52:00
11:12 PM,52.3,17.6,25,29.95,10.0,SE,18.4,23.0,N/A,,Overcast,140,2012-10-13 04:12:00
11:32 PM,52.3,18.5,26,29.94,10.0,SE,16.1,24.2,N/A,,Overcast,140,2012-10-13 04:32:00